owner,sensor,date,latitude,longitude,vertical_datum,wind_speed,wind_to_direction,wind_speed_of_gust,qcFlag 
TCOON,ioos:station:TCOON:003:1,2009-12-01T00:00:00Z,26.8015,-97.4706,0.0,7.7,4.0,9.5,'11111222,11111222,11111222' 
TCOON,ioos:station:TCOON:003:1,2009-12-01T03:00:00Z,26.8015,-97.4706,0.0,8.2,340.0,,'1111122,1111122,1111122' 
TCOON,ioos:station:TCOON:003:1,2009-12-01T04:00:00Z,26.8015,-97.4706,0.0,9.3,360.0,,'1111122,1111122,1111122' 
TCOON,ioos:station:TCOON:003:1,2009-12-01T05:00:00Z,26.8015,-97.4706,0.0,9.8,350.0,,'1111122,1111122,1111122' 
TCOON,ioos:station:TCOON:003:1,2009-12-01T06:00:00Z,26.8015,-97.4706,0.0,8.6,344.0,9.7,'11111222,11111222,11111222' 
TCOON,ioos:station:TCOON:003:1,2009-12-01T07:00:00Z,26.8015,-97.4706,0.0,7.5,358.0,8.3,'11111222,11111222,11111222' 
TCOON,ioos:station:TCOON:003:1,2009-12-01T08:00:00Z,26.8015,-97.4706,0.0,4.6,350.0,,'1111122,1111122,1111122' 
TCOON,ioos:station:TCOON:003:1,2009-12-01T09:00:00Z,26.8015,-97.4706,0.0,6.2,330.0,,'1111122,1111122,1111122' 
TCOON,ioos:station:TCOON:003:1,2009-12-01T12:00:00Z,26.8015,-97.4706,0.0,3.6,320.0,,'1111122,1111122,1111122' 
TCOON,ioos:station:TCOON:003:1,2009-12-01T13:00:00Z,26.8015,-97.4706,0.0,7.7,300.0,,'1111122,1111122,1111122' 
TCOON,ioos:station:TCOON:003:1,2009-12-01T14:00:00Z,26.8015,-97.4706,0.0,3.1,70.0,,'1111122,1111122,1111122' 
TCOON,ioos:station:TCOON:003:1,2009-12-01T16:00:00Z,26.8015,-97.4706,0.0,7.7,310.0,,'1111122,1111122,1111122' 
TCOON,ioos:station:TCOON:003:1,2009-12-01T18:00:00Z,26.8015,-97.4706,0.0,8.2,320.0,,'1111122,1111122,1111122' 
TCOON,ioos:station:TCOON:003:1,2009-12-01T19:00:00Z,26.8015,-97.4706,0.0,9.8,320.0,,'1111122,1111122,1111122' 
TCOON,ioos:station:TCOON:003:1,2009-12-01T20:00:00Z,26.8015,-97.4706,0.0,9.3,340.0,,'1111122,1111122,1111122' 
TCOON,ioos:station:TCOON:003:1,2009-12-01T21:00:00Z,26.8015,-97.4706,0.0,9.8,320.0,,'1111122,1111122,1111122' 
TCOON,ioos:station:TCOON:003:1,2009-12-01T22:00:00Z,26.8015,-97.4706,0.0,8.2,330.0,,'1111122,1111122,1111122' 
TCOON,ioos:station:TCOON:003:1,2009-12-01T23:00:00Z,26.8015,-97.4706,0.0,6.7,340.0,,'1111122,1111122,1111122' 
TCOON,ioos:station:TCOON:003:1,2009-12-02T00:00:00Z,26.8015,-97.4706,0.0,4.6,350.0,,'1111122,1111122,1111122' 
TCOON,ioos:station:TCOON:003:1,2009-12-02T01:00:00Z,26.8015,-97.4706,0.0,8.2,340.0,,'1111122,1111122,1111122' 
TCOON,ioos:station:TCOON:003:1,2009-12-02T02:00:00Z,26.8015,-97.4706,0.0,7.7,340.0,,'1111122,1111122,1111122' 
TCOON,ioos:station:TCOON:003:1,2009-12-02T05:00:00Z,26.8015,-97.4706,0.0,2.6,270.0,,'1111122,1111122,1111122' 
TCOON,ioos:station:TCOON:003:1,2009-12-02T06:00:00Z,26.8015,-97.4706,0.0,2.6,270.0,,'1111122,1111122,1111122' 
TCOON,ioos:station:TCOON:003:1,2009-12-02T08:00:00Z,26.8015,-97.4706,0.0,4.1,290.0,,'1111122,1111122,1111122' 
TCOON,ioos:station:TCOON:003:1,2009-12-02T09:00:00Z,26.8015,-97.4706,0.0,4.6,290.0,,'1111122,1111122,1111122' 
TCOON,ioos:station:TCOON:003:1,2009-12-02T10:00:00Z,26.8015,-97.4706,0.0,3.1,270.0,,'1111122,1111122,1111122' 
TCOON,ioos:station:TCOON:003:1,2009-12-02T11:00:00Z,26.8015,-97.4706,0.0,3.1,280.0,,'1111122,1111122,1111122' 
TCOON,ioos:station:TCOON:003:1,2009-12-02T12:00:00Z,26.8015,-97.4706,0.0,3.1,280.0,,'1111122,1111122,1111122' 
TCOON,ioos:station:TCOON:003:1,2009-12-02T13:00:00Z,26.8015,-97.4706,0.0,3.6,300.0,,'1111122,1111122,1111122' 
TCOON,ioos:station:TCOON:003:1,2009-12-02T14:00:00Z,26.8015,-97.4706,0.0,3.6,300.0,,'1111122,1111122,1111122' 
TCOON,ioos:station:TCOON:003:1,2009-12-02T15:00:00Z,26.8015,-97.4706,0.0,4.1,320.0,,'1111122,1111122,1111122' 
TCOON,ioos:station:TCOON:003:1,2009-12-02T16:00:00Z,26.8015,-97.4706,0.0,3.1,320.0,,'1111122,1111122,1111122' 
TCOON,ioos:station:TCOON:003:1,2009-12-02T17:00:00Z,26.8015,-97.4706,0.0,4.1,310.0,,'1111122,1111122,1111122' 
TCOON,ioos:station:TCOON:003:1,2009-12-02T18:00:00Z,26.8015,-97.4706,0.0,5.7,330.0,,'1111122,1111122,1111122' 
TCOON,ioos:station:TCOON:003:1,2009-12-02T19:00:00Z,26.8015,-97.4706,0.0,5.7,340.0,,'1111122,1111122,1111122' 
TCOON,ioos:station:TCOON:003:1,2009-12-02T20:00:00Z,26.8015,-97.4706,0.0,7.7,350.0,,'1111122,1111122,1111122' 
TCOON,ioos:station:TCOON:003:1,2009-12-02T21:00:00Z,26.8015,-97.4706,0.0,8.7,360.0,,'1111122,1111122,1111122' 
TCOON,ioos:station:TCOON:003:1,2009-12-02T22:00:00Z,26.8015,-97.4706,0.0,10.3,10.0,,'1111122,1111122,1111122' 
TCOON,ioos:station:TCOON:003:1,2009-12-03T00:00:00Z,26.8015,-97.4706,0.0,7.2,360.0,,'1111122,1111122,1111122' 
TCOON,ioos:station:TCOON:003:1,2009-12-03T01:00:00Z,26.8015,-97.4706,0.0,6.2,10.0,,'1111122,1111122,1111122' 
TCOON,ioos:station:TCOON:003:1,2009-12-03T02:00:00Z,26.8015,-97.4706,0.0,7.7,20.0,,'1111122,1111122,1111122' 
TCOON,ioos:station:TCOON:003:1,2009-12-03T03:00:00Z,26.8015,-97.4706,0.0,5.1,20.0,,'1111122,1111122,1111122' 
TCOON,ioos:station:TCOON:003:1,2009-12-03T04:00:00Z,26.8015,-97.4706,0.0,7.7,30.0,,'1111122,1111122,1111122' 
TCOON,ioos:station:TCOON:003:1,2009-12-03T05:00:00Z,26.8015,-97.4706,0.0,4.1,360.0,,'1111122,1111122,1111122' 
TCOON,ioos:station:TCOON:003:1,2009-12-03T06:00:00Z,26.8015,-97.4706,0.0,5.7,340.0,,'1111122,1111122,1111122' 
TCOON,ioos:station:TCOON:003:1,2009-12-03T09:00:00Z,26.8015,-97.4706,0.0,6.2,330.0,,'1111122,1111122,1111122' 
TCOON,ioos:station:TCOON:003:1,2009-12-03T10:00:00Z,26.8015,-97.4706,0.0,6.2,350.0,,'1111122,1111122,1111122' 
TCOON,ioos:station:TCOON:003:1,2009-12-03T11:00:00Z,26.8015,-97.4706,0.0,6.2,360.0,,'1111122,1111122,1111122' 
TCOON,ioos:station:TCOON:003:1,2009-12-03T12:00:00Z,26.8015,-97.4706,0.0,7.1,10.0,8.3,'11111222,11111222,11111222' 
TCOON,ioos:station:TCOON:003:1,2009-12-03T13:00:00Z,26.8015,-97.4706,0.0,8.2,30.0,,'1111122,1111122,1111122' 
TCOON,ioos:station:TCOON:003:1,2009-12-03T14:00:00Z,26.8015,-97.4706,0.0,8.2,360.0,,'1111122,1111122,1111122' 
TCOON,ioos:station:TCOON:003:1,2009-12-03T15:00:00Z,26.8015,-97.4706,0.0,8.2,360.0,,'1111122,1111122,1111122' 
TCOON,ioos:station:TCOON:003:1,2009-12-03T17:00:00Z,26.8015,-97.4706,0.0,8.1,12.0,9.2,'11111222,11111222,11111222' 
TCOON,ioos:station:TCOON:003:1,2009-12-03T20:00:00Z,26.8015,-97.4706,0.0,7.0,6.0,7.8,'11111222,11111222,11111222' 
TCOON,ioos:station:TCOON:003:1,2009-12-04T14:00:00Z,26.8015,-97.4706,0.0,11.9,355.0,13.7,'11111222,11111222,11111222' 
TCOON,ioos:station:TCOON:003:1,2009-12-04T15:00:00Z,26.8015,-97.4706,0.0,12.0,354.0,13.5,'11111222,11111222,11111222' 
TCOON,ioos:station:TCOON:003:1,2009-12-04T18:00:00Z,26.8015,-97.4706,0.0,14.4,360.0,,'1111122,1111122,1111122' 
TCOON,ioos:station:TCOON:003:1,2009-12-04T19:00:00Z,26.8015,-97.4706,0.0,14.4,360.0,,'1111122,1111122,1111122' 
TCOON,ioos:station:TCOON:003:1,2009-12-04T21:00:00Z,26.8015,-97.4706,0.0,10.8,360.0,,'1111122,1111122,1111122' 
TCOON,ioos:station:TCOON:003:1,2009-12-04T22:00:00Z,26.8015,-97.4706,0.0,12.3,360.0,,'1111122,1111122,1111122' 
TCOON,ioos:station:TCOON:003:1,2009-12-04T23:00:00Z,26.8015,-97.4706,0.0,10.8,360.0,,'1111122,1111122,1111122' 
TCOON,ioos:station:TCOON:003:1,2009-12-05T01:00:00Z,26.8015,-97.4706,0.0,5.1,10.0,,'1111122,1111122,1111122' 
TCOON,ioos:station:TCOON:003:1,2009-12-05T02:00:00Z,26.8015,-97.4706,0.0,5.7,360.0,,'1111122,1111122,1111122' 
TCOON,ioos:station:TCOON:003:1,2009-12-05T03:00:00Z,26.8015,-97.4706,0.0,4.6,350.0,,'1111122,1111122,1111122' 
TCOON,ioos:station:TCOON:003:1,2009-12-05T04:00:00Z,26.8015,-97.4706,0.0,6.2,360.0,,'1111122,1111122,1111122' 
TCOON,ioos:station:TCOON:003:1,2009-12-05T05:00:00Z,26.8015,-97.4706,0.0,3.6,350.0,,'1111122,1111122,1111122' 
TCOON,ioos:station:TCOON:003:1,2009-12-05T06:00:00Z,26.8015,-97.4706,0.0,4.6,360.0,,'1111122,1111122,1111122' 
TCOON,ioos:station:TCOON:003:1,2009-12-05T07:00:00Z,26.8015,-97.4706,0.0,4.1,330.0,,'1111122,1111122,1111122' 
TCOON,ioos:station:TCOON:003:1,2009-12-05T08:00:00Z,26.8015,-97.4706,0.0,4.1,330.0,,'1111122,1111122,1111122' 
TCOON,ioos:station:TCOON:003:1,2009-12-05T09:00:00Z,26.8015,-97.4706,0.0,4.1,300.0,,'1111122,1111122,1111122' 
TCOON,ioos:station:TCOON:003:1,2009-12-05T10:00:00Z,26.8015,-97.4706,0.0,3.6,310.0,,'1111122,1111122,1111122' 
TCOON,ioos:station:TCOON:003:1,2009-12-05T11:00:00Z,26.8015,-97.4706,0.0,4.1,310.0,,'1111122,1111122,1111122' 
TCOON,ioos:station:TCOON:003:1,2009-12-05T12:00:00Z,26.8015,-97.4706,0.0,4.6,310.0,,'1111122,1111122,1111122' 
TCOON,ioos:station:TCOON:003:1,2009-12-05T13:00:00Z,26.8015,-97.4706,0.0,4.6,310.0,,'1111122,1111122,1111122' 
TCOON,ioos:station:TCOON:003:1,2009-12-05T14:00:00Z,26.8015,-97.4706,0.0,4.6,320.0,,'1111122,1111122,1111122' 
TCOON,ioos:station:TCOON:003:1,2009-12-05T15:00:00Z,26.8015,-97.4706,0.0,4.1,340.0,,'1111122,1111122,1111122' 
TCOON,ioos:station:TCOON:003:1,2009-12-05T16:00:00Z,26.8015,-97.4706,0.0,4.1,330.0,,'1111122,1111122,1111122' 
TCOON,ioos:station:TCOON:003:1,2009-12-05T17:00:00Z,26.8015,-97.4706,0.0,2.1,330.0,,'1111122,1111122,1111122' 
TCOON,ioos:station:TCOON:003:1,2009-12-05T18:00:00Z,26.8015,-97.4706,0.0,0.5,310.0,,'1111122,1111122,1111122' 
TCOON,ioos:station:TCOON:003:1,2009-12-05T19:00:00Z,26.8015,-97.4706,0.0,0.4,295.0,0.7,'11111222,11111222,11111222' 
TCOON,ioos:station:TCOON:003:1,2009-12-05T20:00:00Z,26.8015,-97.4706,0.0,3.1,90.0,,'1111122,1111122,1111122' 
TCOON,ioos:station:TCOON:003:1,2009-12-05T21:00:00Z,26.8015,-97.4706,0.0,2.1,60.0,,'1111122,1111122,1111122' 
TCOON,ioos:station:TCOON:003:1,2009-12-05T22:00:00Z,26.8015,-97.4706,0.0,2.1,30.0,,'1111122,1111122,1111122' 
TCOON,ioos:station:TCOON:003:1,2009-12-05T23:00:00Z,26.8015,-97.4706,0.0,2.6,10.0,,'1111122,1111122,1111122' 
TCOON,ioos:station:TCOON:003:1,2009-12-06T00:00:00Z,26.8015,-97.4706,0.0,3.1,350.0,,'1111122,1111122,1111122' 
TCOON,ioos:station:TCOON:003:1,2009-12-06T01:00:00Z,26.8015,-97.4706,0.0,2.1,310.0,,'1111122,1111122,1111122' 
TCOON,ioos:station:TCOON:003:1,2009-12-06T02:00:00Z,26.8015,-97.4706,0.0,2.6,320.0,,'1111122,1111122,1111122' 
TCOON,ioos:station:TCOON:003:1,2009-12-06T03:00:00Z,26.8015,-97.4706,0.0,3.1,280.0,,'1111122,1111122,1111122' 
TCOON,ioos:station:TCOON:003:1,2009-12-06T04:00:00Z,26.8015,-97.4706,0.0,2.6,310.0,,'1111122,1111122,1111122' 
TCOON,ioos:station:TCOON:003:1,2009-12-06T05:00:00Z,26.8015,-97.4706,0.0,2.1,340.0,,'1111122,1111122,1111122' 
TCOON,ioos:station:TCOON:003:1,2009-12-06T06:00:00Z,26.8015,-97.4706,0.0,1.5,350.0,,'1111122,1111122,1111122' 
TCOON,ioos:station:TCOON:003:1,2009-12-06T07:00:00Z,26.8015,-97.4706,0.0,2.1,40.0,,'1111122,1111122,1111122' 
TCOON,ioos:station:TCOON:003:1,2009-12-06T08:00:00Z,26.8015,-97.4706,0.0,0.0,62.0,99.0,'11111222,11111222,11144222' 
TCOON,ioos:station:TCOON:003:1,2009-12-06T09:00:00Z,26.8015,-97.4706,0.0,0.0,262.0,99.0,'11111222,11111222,11144222' 
TCOON,ioos:station:TCOON:003:1,2009-12-06T10:00:00Z,26.8015,-97.4706,0.0,0.0,253.0,99.0,'11111222,11111222,11144222' 
TCOON,ioos:station:TCOON:003:1,2009-12-06T11:00:00Z,26.8015,-97.4706,0.0,2.6,120.0,,'1111122,1111122,1111122' 
TCOON,ioos:station:TCOON:003:1,2009-12-06T13:00:00Z,26.8015,-97.4706,0.0,0.0,180.0,99.0,'11111222,11111222,11144222' 
TCOON,ioos:station:TCOON:003:1,2009-12-06T14:00:00Z,26.8015,-97.4706,0.0,2.8,245.0,3.3,'11111222,11111222,11111222' 
TCOON,ioos:station:TCOON:003:1,2009-12-06T15:00:00Z,26.8015,-97.4706,0.0,3.8,200.0,4.1,'11111222,11111222,11111222' 
TCOON,ioos:station:TCOON:003:1,2009-12-06T16:00:00Z,26.8015,-97.4706,0.0,2.6,140.0,,'1111122,1111122,1111122' 
TCOON,ioos:station:TCOON:003:1,2009-12-06T17:00:00Z,26.8015,-97.4706,0.0,3.6,130.0,,'1111122,1111122,1111122' 
TCOON,ioos:station:TCOON:003:1,2009-12-06T18:00:00Z,26.8015,-97.4706,0.0,5.1,150.0,,'1111122,1111122,1111122' 
TCOON,ioos:station:TCOON:003:1,2009-12-06T19:00:00Z,26.8015,-97.4706,0.0,6.2,160.0,,'1111122,1111122,1111122' 
TCOON,ioos:station:TCOON:003:1,2009-12-06T20:00:00Z,26.8015,-97.4706,0.0,2.6,140.0,,'1111122,1111122,1111122' 
TCOON,ioos:station:TCOON:003:1,2009-12-06T21:00:00Z,26.8015,-97.4706,0.0,5.7,160.0,,'1111122,1111122,1111122' 
TCOON,ioos:station:TCOON:003:1,2009-12-06T22:00:00Z,26.8015,-97.4706,0.0,6.2,130.0,,'1111122,1111122,1111122' 
TCOON,ioos:station:TCOON:003:1,2009-12-06T23:00:00Z,26.8015,-97.4706,0.0,4.6,140.0,,'1111122,1111122,1111122' 
TCOON,ioos:station:TCOON:003:1,2009-12-07T00:00:00Z,26.8015,-97.4706,0.0,4.1,180.0,,'1111122,1111122,1111122' 
TCOON,ioos:station:TCOON:003:1,2009-12-07T01:00:00Z,26.8015,-97.4706,0.0,4.1,190.0,,'1111122,1111122,1111122' 
TCOON,ioos:station:TCOON:003:1,2009-12-07T02:00:00Z,26.8015,-97.4706,0.0,2.1,190.0,,'1111122,1111122,1111122' 
TCOON,ioos:station:TCOON:003:1,2009-12-07T03:00:00Z,26.8015,-97.4706,0.0,1.5,150.0,,'1111122,1111122,1111122' 
TCOON,ioos:station:TCOON:003:1,2009-12-07T04:00:00Z,26.8015,-97.4706,0.0,1.0,120.0,,'1111122,1111122,1111122' 
TCOON,ioos:station:TCOON:003:1,2009-12-07T05:00:00Z,26.8015,-97.4706,0.0,1.5,20.0,,'1111122,1111122,1111122' 
TCOON,ioos:station:TCOON:003:1,2009-12-07T06:00:00Z,26.8015,-97.4706,0.0,2.1,140.0,,'1111122,1111122,1111122' 
TCOON,ioos:station:TCOON:003:1,2009-12-07T07:00:00Z,26.8015,-97.4706,0.0,2.6,150.0,,'1111122,1111122,1111122' 
TCOON,ioos:station:TCOON:003:1,2009-12-07T09:00:00Z,26.8015,-97.4706,0.0,2.6,50.0,,'1111122,1111122,1111122' 
TCOON,ioos:station:TCOON:003:1,2009-12-07T10:00:00Z,26.8015,-97.4706,0.0,3.6,30.0,,'1111122,1111122,1111122' 
TCOON,ioos:station:TCOON:003:1,2009-12-07T11:00:00Z,26.8015,-97.4706,0.0,3.6,50.0,,'1111122,1111122,1111122' 
TCOON,ioos:station:TCOON:003:1,2009-12-07T12:00:00Z,26.8015,-97.4706,0.0,3.6,60.0,,'1111122,1111122,1111122' 
TCOON,ioos:station:TCOON:003:1,2009-12-07T13:00:00Z,26.8015,-97.4706,0.0,3.1,70.0,,'1111122,1111122,1111122' 
TCOON,ioos:station:TCOON:003:1,2009-12-07T14:00:00Z,26.8015,-97.4706,0.0,3.1,90.0,,'1111122,1111122,1111122' 
TCOON,ioos:station:TCOON:003:1,2009-12-07T15:00:00Z,26.8015,-97.4706,0.0,2.6,50.0,,'1111122,1111122,1111122' 
TCOON,ioos:station:TCOON:003:1,2009-12-07T16:00:00Z,26.8015,-97.4706,0.0,2.6,50.0,,'1111122,1111122,1111122' 
TCOON,ioos:station:TCOON:003:1,2009-12-07T17:00:00Z,26.8015,-97.4706,0.0,3.1,50.0,,'1111122,1111122,1111122' 
TCOON,ioos:station:TCOON:003:1,2009-12-07T18:00:00Z,26.8015,-97.4706,0.0,3.1,50.0,,'1111122,1111122,1111122' 
TCOON,ioos:station:TCOON:003:1,2009-12-07T19:00:00Z,26.8015,-97.4706,0.0,5.7,40.0,,'1111122,1111122,1111122' 
TCOON,ioos:station:TCOON:003:1,2009-12-07T20:00:00Z,26.8015,-97.4706,0.0,6.2,30.0,,'1111122,1111122,1111122' 
TCOON,ioos:station:TCOON:003:1,2009-12-07T21:00:00Z,26.8015,-97.4706,0.0,5.1,40.0,,'1111122,1111122,1111122' 
TCOON,ioos:station:TCOON:003:1,2009-12-07T22:00:00Z,26.8015,-97.4706,0.0,5.1,40.0,,'1111122,1111122,1111122' 
TCOON,ioos:station:TCOON:003:1,2009-12-07T23:00:00Z,26.8015,-97.4706,0.0,3.1,50.0,,'1111122,1111122,1111122' 
TCOON,ioos:station:TCOON:003:1,2009-12-08T00:00:00Z,26.8015,-97.4706,0.0,3.6,30.0,,'1111122,1111122,1111122' 
TCOON,ioos:station:TCOON:003:1,2009-12-08T01:00:00Z,26.8015,-97.4706,0.0,4.1,40.0,,'1111122,1111122,1111122' 
TCOON,ioos:station:TCOON:003:1,2009-12-08T02:00:00Z,26.8015,-97.4706,0.0,4.1,10.0,,'1111122,1111122,1111122' 
TCOON,ioos:station:TCOON:003:1,2009-12-08T03:00:00Z,26.8015,-97.4706,0.0,5.1,20.0,,'1111122,1111122,1111122' 
TCOON,ioos:station:TCOON:003:1,2009-12-08T04:00:00Z,26.8015,-97.4706,0.0,4.6,20.0,,'1111122,1111122,1111122' 
TCOON,ioos:station:TCOON:003:1,2009-12-08T05:00:00Z,26.8015,-97.4706,0.0,3.1,30.0,,'1111122,1111122,1111122' 
TCOON,ioos:station:TCOON:003:1,2009-12-08T06:00:00Z,26.8015,-97.4706,0.0,2.6,360.0,,'1111122,1111122,1111122' 
TCOON,ioos:station:TCOON:003:1,2009-12-08T08:00:00Z,26.8015,-97.4706,0.0,3.1,30.0,,'1111122,1111122,1111122' 
TCOON,ioos:station:TCOON:003:1,2009-12-08T09:00:00Z,26.8015,-97.4706,0.0,2.1,70.0,,'1111122,1111122,1111122' 
TCOON,ioos:station:TCOON:003:1,2009-12-08T10:00:00Z,26.8015,-97.4706,0.0,3.6,150.0,,'1111122,1111122,1111122' 
TCOON,ioos:station:TCOON:003:1,2009-12-08T11:00:00Z,26.8015,-97.4706,0.0,0.5,200.0,,'1111122,1111122,1111122' 
TCOON,ioos:station:TCOON:003:1,2009-12-08T12:00:00Z,26.8015,-97.4706,0.0,2.6,190.0,,'1111122,1111122,1111122' 
TCOON,ioos:station:TCOON:003:1,2009-12-08T13:00:00Z,26.8015,-97.4706,0.0,3.6,160.0,,'1111122,1111122,1111122' 
TCOON,ioos:station:TCOON:003:1,2009-12-08T14:00:00Z,26.8015,-97.4706,0.0,3.9,178.0,4.1,'11111222,11111222,11111222' 
TCOON,ioos:station:TCOON:003:1,2009-12-08T15:00:00Z,26.8015,-97.4706,0.0,4.6,190.0,,'1111122,1111122,1111122' 
TCOON,ioos:station:TCOON:003:1,2009-12-08T16:00:00Z,26.8015,-97.4706,0.0,10.8,200.0,,'1111122,1111122,1111122' 
TCOON,ioos:station:TCOON:003:1,2009-12-08T17:00:00Z,26.8015,-97.4706,0.0,9.3,200.0,,'1111122,1111122,1111122' 
TCOON,ioos:station:TCOON:003:1,2009-12-08T18:00:00Z,26.8015,-97.4706,0.0,5.7,190.0,,'1111122,1111122,1111122' 
TCOON,ioos:station:TCOON:003:1,2009-12-08T19:00:00Z,26.8015,-97.4706,0.0,6.2,160.0,,'1111122,1111122,1111122' 
TCOON,ioos:station:TCOON:003:1,2009-12-08T20:00:00Z,26.8015,-97.4706,0.0,7.7,160.0,,'1111122,1111122,1111122' 
TCOON,ioos:station:TCOON:003:1,2009-12-08T21:00:00Z,26.8015,-97.4706,0.0,8.2,170.0,,'1111122,1111122,1111122' 
TCOON,ioos:station:TCOON:003:1,2009-12-08T22:00:00Z,26.8015,-97.4706,0.0,6.2,170.0,,'1111122,1111122,1111122' 
TCOON,ioos:station:TCOON:003:1,2009-12-08T23:00:00Z,26.8015,-97.4706,0.0,6.7,180.0,,'1111122,1111122,1111122' 
TCOON,ioos:station:TCOON:003:1,2009-12-09T00:00:00Z,26.8015,-97.4706,0.0,6.7,180.0,,'1111122,1111122,1111122' 
TCOON,ioos:station:TCOON:003:1,2009-12-09T01:00:00Z,26.8015,-97.4706,0.0,2.6,180.0,,'1111122,1111122,1111122' 
TCOON,ioos:station:TCOON:003:1,2009-12-09T02:00:00Z,26.8015,-97.4706,0.0,3.1,190.0,,'1111122,1111122,1111122' 
TCOON,ioos:station:TCOON:003:1,2009-12-09T03:00:00Z,26.8015,-97.4706,0.0,1.5,280.0,,'1111122,1111122,1111122' 
TCOON,ioos:station:TCOON:003:1,2009-12-09T04:00:00Z,26.8015,-97.4706,0.0,1.0,340.0,,'1111122,1111122,1111122' 
TCOON,ioos:station:TCOON:003:1,2009-12-09T05:00:00Z,26.8015,-97.4706,0.0,0.0,164.0,99.0,'11111222,11111222,11144222' 
TCOON,ioos:station:TCOON:003:1,2009-12-09T06:00:00Z,26.8015,-97.4706,0.0,1.5,40.0,,'1111122,1111122,1111122' 
TCOON,ioos:station:TCOON:003:1,2009-12-09T07:00:00Z,26.8015,-97.4706,0.0,4.6,30.0,,'1111122,1111122,1111122' 
TCOON,ioos:station:TCOON:003:1,2009-12-09T08:00:00Z,26.8015,-97.4706,0.0,7.2,20.0,,'1111122,1111122,1111122' 
TCOON,ioos:station:TCOON:003:1,2009-12-09T09:00:00Z,26.8015,-97.4706,0.0,8.7,30.0,,'1111122,1111122,1111122' 
TCOON,ioos:station:TCOON:003:1,2009-12-09T10:00:00Z,26.8015,-97.4706,0.0,6.7,20.0,,'1111122,1111122,1111122' 
TCOON,ioos:station:TCOON:003:1,2009-12-09T11:00:00Z,26.8015,-97.4706,0.0,6.2,10.0,,'1111122,1111122,1111122' 
TCOON,ioos:station:TCOON:003:1,2009-12-09T12:00:00Z,26.8015,-97.4706,0.0,9.3,20.0,,'1111122,1111122,1111122' 
TCOON,ioos:station:TCOON:003:1,2009-12-09T13:00:00Z,26.8015,-97.4706,0.0,9.3,20.0,,'1111122,1111122,1111122' 
TCOON,ioos:station:TCOON:003:1,2009-12-09T14:00:00Z,26.8015,-97.4706,0.0,9.3,30.0,,'1111122,1111122,1111122' 
TCOON,ioos:station:TCOON:003:1,2009-12-09T15:00:00Z,26.8015,-97.4706,0.0,11.3,40.0,,'1111122,1111122,1111122' 
TCOON,ioos:station:TCOON:003:1,2009-12-09T16:00:00Z,26.8015,-97.4706,0.0,13.9,30.0,,'1111122,1111122,1111122' 
TCOON,ioos:station:TCOON:003:1,2009-12-09T17:00:00Z,26.8015,-97.4706,0.0,14.9,30.0,,'1111122,1111122,1111122' 
TCOON,ioos:station:TCOON:003:1,2009-12-09T18:00:00Z,26.8015,-97.4706,0.0,11.9,24.0,14.3,'11111222,11111222,11111222' 
TCOON,ioos:station:TCOON:003:1,2009-12-09T19:00:00Z,26.8015,-97.4706,0.0,10.8,20.0,,'1111122,1111122,1111122' 
TCOON,ioos:station:TCOON:003:1,2009-12-09T20:00:00Z,26.8015,-97.4706,0.0,10.3,20.0,,'1111122,1111122,1111122' 
TCOON,ioos:station:TCOON:003:1,2009-12-09T21:00:00Z,26.8015,-97.4706,0.0,9.3,20.0,,'1111122,1111122,1111122' 
TCOON,ioos:station:TCOON:003:1,2009-12-09T22:00:00Z,26.8015,-97.4706,0.0,9.3,30.0,,'1111122,1111122,1111122' 
TCOON,ioos:station:TCOON:003:1,2009-12-09T23:00:00Z,26.8015,-97.4706,0.0,8.7,20.0,,'1111122,1111122,1111122' 
TCOON,ioos:station:TCOON:003:1,2009-12-10T00:00:00Z,26.8015,-97.4706,0.0,7.2,20.0,,'1111122,1111122,1111122' 
TCOON,ioos:station:TCOON:003:1,2009-12-10T01:00:00Z,26.8015,-97.4706,0.0,7.2,20.0,,'1111122,1111122,1111122' 
TCOON,ioos:station:TCOON:003:1,2009-12-10T03:00:00Z,26.8015,-97.4706,0.0,6.2,360.0,,'1111122,1111122,1111122' 
TCOON,ioos:station:TCOON:003:1,2009-12-10T04:00:00Z,26.8015,-97.4706,0.0,9.8,360.0,,'1111122,1111122,1111122' 
TCOON,ioos:station:TCOON:003:1,2009-12-10T05:00:00Z,26.8015,-97.4706,0.0,8.7,20.0,,'1111122,1111122,1111122' 
TCOON,ioos:station:TCOON:003:1,2009-12-10T06:00:00Z,26.8015,-97.4706,0.0,8.2,20.0,,'1111122,1111122,1111122' 
TCOON,ioos:station:TCOON:003:1,2009-12-10T07:00:00Z,26.8015,-97.4706,0.0,6.2,10.0,,'1111122,1111122,1111122' 
TCOON,ioos:station:TCOON:003:1,2009-12-10T08:00:00Z,26.8015,-97.4706,0.0,6.2,20.0,,'1111122,1111122,1111122' 
TCOON,ioos:station:TCOON:003:1,2009-12-10T09:00:00Z,26.8015,-97.4706,0.0,7.2,360.0,,'1111122,1111122,1111122' 
TCOON,ioos:station:TCOON:003:1,2009-12-10T10:00:00Z,26.8015,-97.4706,0.0,7.7,350.0,,'1111122,1111122,1111122' 
TCOON,ioos:station:TCOON:003:1,2009-12-10T11:00:00Z,26.8015,-97.4706,0.0,9.3,360.0,,'1111122,1111122,1111122' 
TCOON,ioos:station:TCOON:003:1,2009-12-10T12:00:00Z,26.8015,-97.4706,0.0,9.8,360.0,,'1111122,1111122,1111122' 
TCOON,ioos:station:TCOON:003:1,2009-12-10T13:00:00Z,26.8015,-97.4706,0.0,8.7,10.0,,'1111122,1111122,1111122' 
TCOON,ioos:station:TCOON:003:1,2009-12-10T14:00:00Z,26.8015,-97.4706,0.0,10.3,10.0,,'1111122,1111122,1111122' 
TCOON,ioos:station:TCOON:003:1,2009-12-10T15:00:00Z,26.8015,-97.4706,0.0,10.8,10.0,,'1111122,1111122,1111122' 
TCOON,ioos:station:TCOON:003:1,2009-12-10T16:00:00Z,26.8015,-97.4706,0.0,9.8,10.0,,'1111122,1111122,1111122' 
TCOON,ioos:station:TCOON:003:1,2009-12-10T17:00:00Z,26.8015,-97.4706,0.0,10.3,10.0,,'1111122,1111122,1111122' 
TCOON,ioos:station:TCOON:003:1,2009-12-10T18:00:00Z,26.8015,-97.4706,0.0,11.3,20.0,,'1111122,1111122,1111122' 
TCOON,ioos:station:TCOON:003:1,2009-12-10T19:00:00Z,26.8015,-97.4706,0.0,10.3,30.0,,'1111122,1111122,1111122' 
TCOON,ioos:station:TCOON:003:1,2009-12-10T20:00:00Z,26.8015,-97.4706,0.0,9.8,30.0,,'1111122,1111122,1111122' 
TCOON,ioos:station:TCOON:003:1,2009-12-10T21:00:00Z,26.8015,-97.4706,0.0,9.8,30.0,,'1111122,1111122,1111122' 
TCOON,ioos:station:TCOON:003:1,2009-12-10T23:00:00Z,26.8015,-97.4706,0.0,9.8,30.0,,'1111122,1111122,1111122' 
TCOON,ioos:station:TCOON:003:1,2009-12-11T00:00:00Z,26.8015,-97.4706,0.0,10.3,40.0,,'1111122,1111122,1111122' 
TCOON,ioos:station:TCOON:003:1,2009-12-11T01:00:00Z,26.8015,-97.4706,0.0,10.3,40.0,,'1111122,1111122,1111122' 
TCOON,ioos:station:TCOON:003:1,2009-12-11T03:00:00Z,26.8015,-97.4706,0.0,10.3,30.0,,'1111122,1111122,1111122' 
TCOON,ioos:station:TCOON:003:1,2009-12-11T04:00:00Z,26.8015,-97.4706,0.0,9.3,30.0,,'1111122,1111122,1111122' 
TCOON,ioos:station:TCOON:003:1,2009-12-11T05:00:00Z,26.8015,-97.4706,0.0,8.7,30.0,,'1111122,1111122,1111122' 
TCOON,ioos:station:TCOON:003:1,2009-12-11T06:00:00Z,26.8015,-97.4706,0.0,6.7,20.0,,'1111122,1111122,1111122' 
TCOON,ioos:station:TCOON:003:1,2009-12-11T07:00:00Z,26.8015,-97.4706,0.0,6.2,30.0,,'1111122,1111122,1111122' 
TCOON,ioos:station:TCOON:003:1,2009-12-11T08:00:00Z,26.8015,-97.4706,0.0,8.2,20.0,,'1111122,1111122,1111122' 
TCOON,ioos:station:TCOON:003:1,2009-12-11T10:00:00Z,26.8015,-97.4706,0.0,8.7,360.0,,'1111122,1111122,1111122' 
TCOON,ioos:station:TCOON:003:1,2009-12-11T11:00:00Z,26.8015,-97.4706,0.0,9.3,360.0,,'1111122,1111122,1111122' 
TCOON,ioos:station:TCOON:003:1,2009-12-11T12:00:00Z,26.8015,-97.4706,0.0,9.8,360.0,,'1111122,1111122,1111122' 
TCOON,ioos:station:TCOON:003:1,2009-12-11T13:00:00Z,26.8015,-97.4706,0.0,9.8,360.0,,'1111122,1111122,1111122' 
TCOON,ioos:station:TCOON:003:1,2009-12-11T15:00:00Z,26.8015,-97.4706,0.0,8.7,360.0,,'1111122,1111122,1111122' 
TCOON,ioos:station:TCOON:003:1,2009-12-11T16:00:00Z,26.8015,-97.4706,0.0,9.8,360.0,,'1111122,1111122,1111122' 
TCOON,ioos:station:TCOON:003:1,2009-12-11T17:00:00Z,26.8015,-97.4706,0.0,9.3,350.0,,'1111122,1111122,1111122' 